[[{"header":{"parameterUnit":"m.s-1","parameterCategory":1,"la1":30.2991,"la2":30.254,"lo1":-89.0895,"lo2":-89.0444,"dy":0.0017,"dx":0.0017,"nx":28,"ny":28,"refTime":"2023-10-05T21:00:00:Z","depth":0,"parameterNumber":2,"parameterNumberName":"U-component_of_WINDS"},"data":[0,0,0,0,0,0,0,0,0,0,0,0,0,0,0,0,0,0,0,0,0,0,0,0,0,0,0,0,0,0,0,0,0,0,0,0,0,0,0,0,0,0,0,0,0,0,0,0,0,0,0,0,0,0,0,0,0,0,-1.1905,-1.1905,0,-1.1938,-1.1938,-1.1938,-1.1898,-1.1897,-1.1895,-1.1894,-1.1928,-1.193,-1.1932,0,0,0,0,0,0,0,0,0,0,0,0,0,-1.1807,-1.1809,-1.1905,-1.1905,-1.1906,-1.1937,-1.1938,-1.1938,-1.1899,-1.1897,-1.1895,-1.1893,-1.1927,-1.193,-1.1932,0,0,0,0,0,0,0,0,0,0,0,0,0,-1.1846,-1.181,-1.1905,-1.189,-1.1889,-1.1937,-1.1938,-1.1939,-1.1899,-1.1897,-1.1894,-1.1892,-1.1926,-1.1929,-1.1933,-1.1998,0,0,-1.1943,-1.1945,0,0,0,0,0,0,0,0,-1.1844,-1.1849,-1.1891,-1.1891,-1.189,-1.1912,-1.1916,-1.1958,-1.1899,-1.1895,-1.1894,-1.1891,-1.1924,-1.1928,-1.1939,-1.2,-1.2001,-1.1943,-1.1945,-1.1947,-1.1948,0,0,0,0,0,0,0,-1.1841,-1.1848,-1.1918,-1.1892,-1.1891,-1.1881,-1.1884,-1.1924,-1.1922,-1.1895,-1.1892,-1.1897,-1.1923,-1.1935,-1.1939,-1.2002,-1.1943,-1.1946,-1.1948,-1.195,-1.2118,-1.212,0,0,0,0,0,0,-1.184,-1.1846,-1.1917,-1.1919,-1.1861,-1.1884,-1.1888,-1.1907,-1.1921,-1.1921,-1.1899,-1.1895,-1.1931,-1.1935,-1.194,-1.2018,-1.1947,-1.195,-1.1952,-1.2115,-1.2118,-1.2121,0,0,0,0,0,0,-1.1838,-1.1847,-1.1915,-1.1881,-1.1889,-1.1888,-1.191,-1.1909,-1.1921,-1.1924,-1.1923,-1.1912,-1.1929,-1.1935,-1.1984,-1.2019,-1.1952,-1.1955,-1.2112,-1.2116,-1.2119,-1.2174,0,0,0,0,0,0,-1.1835,-1.1846,-1.1872,-1.1882,-1.1891,-1.1959,-1.1912,-1.1911,-1.1927,-1.1922,-1.1936,-1.1936,-1.1928,-1.1979,-1.1987,-1.2022,-1.1957,-1.2109,-1.2114,-1.2118,-1.217,-1.2179,-1.2188,0,0,0,0,0,-1.1832,-1.1886,-1.1873,-1.1882,-1.1923,-1.1961,-1.1967,-1.1956,-1.193,-1.1955,-1.1956,-1.1935,-1.2013,-1.1984,-1.1993,-1.203,-1.2107,-1.2113,-1.2118,-1.2165,-1.2178,-1.2188,0,0,0,0,0,0,-1.188,-1.1887,-1.1873,-1.1932,-1.1946,-1.1955,-1.1986,-1.1969,-1.1992,-1.1987,-1.1972,-1.1976,-1.2028,-1.2033,-1.2001,-1.2093,-1.2056,-1.2063,-1.2089,-1.21,-1.2109,-1.2108,-1.196,0,0,0,0,0,-1.1897,-1.1928,-1.1932,-1.1984,-1.1992,-1.1988,-1.2004,-1.1995,-1.2009,-1.2015,-1.202,-1.2035,-1.2062,-1.2081,-1.2107,-1.2169,-1.2172,-1.2198,-1.2208,-1.2215,-1.2223,-1.2256,-1.2268,-1.2138,-1.2138,-1.2138,0,0,-1.1933,-1.1941,-1.1961,-1.1993,-1.2004,-1.2036,-1.1993,-1.2029,-1.2053,-1.202,-1.2067,-1.2071,-1.2086,-1.2142,-1.2167,-1.2148,-1.2258,-1.2222,-1.2228,-1.2231,-1.2263,-1.2275,-1.2286,-1.2142,-1.2141,-1.2141,0,0,-1.2016,-1.2025,-1.2069,-1.2079,-1.2095,-1.2092,-1.2102,-1.2113,-1.2114,-1.216,-1.2137,-1.2164,-1.2212,-1.2224,-1.2236,-1.2322,-1.2303,-1.233,-1.2379,-1.2412,-1.2422,-1.2431,-1.2463,-1.2474,-1.2337,-1.2337,-1.2337,0,-1.206,-1.2107,-1.2094,-1.2131,-1.2146,-1.2117,-1.2162,-1.2172,-1.2196,-1.2206,-1.2184,-1.2244,-1.2252,-1.231,-1.2331,-1.2341,-1.2353,-1.233,-1.2422,-1.2431,-1.2439,-1.2469,-1.2481,-1.234,-1.234,-1.234,-1.2339,0,-1.216,-1.2194,-1.2227,-1.225,-1.2268,-1.2309,-1.2301,-1.2321,-1.2309,-1.2308,-1.2355,-1.2364,-1.2391,-1.2403,-1.2392,-1.246,-1.2448,-1.2424,-1.2386,-1.2455,-1.2483,-1.2494,-1.2345,-1.2344,-1.2343,-1.2342,0,0,-1.2277,-1.229,-1.2303,-1.2313,-1.2327,-1.2353,-1.2391,-1.2417,-1.2435,-1.2451,-1.2484,-1.2524,-1.2502,-1.2516,-1.2505,-1.2534,-1.2602,-1.2506,-1.2507,-1.2525,-1.2677,-1.2697,-1.271,-1.2588,-1.259,-1.2592,-1.2677,0,-1.2361,-1.2429,-1.2417,-1.2483,-1.2514,-1.2486,-1.2519,-1.2531,-1.2531,-1.2556,-1.2555,-1.2584,-1.2552,-1.256,-1.2587,-1.2588,-1.2632,-1.2581,-1.2619,-1.2621,-1.2619,-1.2725,-1.2745,-1.2825,-1.2687,-1.2689,-1.269,0,-1.247,-1.249,-1.2559,-1.2567,-1.2579,-1.261,-1.2633,-1.2657,-1.267,-1.2667,-1.2682,-1.2666,-1.2704,-1.2663,-1.2716,-1.2682,-1.2696,-1.2698,-1.2701,-1.2706,-1.2662,-1.2734,-1.285,-1.2863,-1.2707,-1.2706,-1.2705,0,-1.255,-1.2593,-1.2641,-1.265,-1.266,-1.2683,-1.2688,-1.2698,-1.2714,-1.2733,-1.2744,-1.2767,-1.278,-1.2798,-1.2788,-1.276,-1.2843,-1.2802,-1.2842,-1.2843,-1.2864,-1.2863,-1.2985,-1.2869,-1.2869,-1.2869,-1.2869,0,-1.2646,-1.269,-1.2677,-1.2706,-1.2754,-1.2738,-1.2786,-1.2788,-1.2797,-1.2826,-1.2802,-1.2829,-1.2814,-1.284,-1.2832,-1.2878,-1.2883,-1.2882,-1.288,-1.2886,-1.2886,-1.2897,-1.2892,-1.2872,-1.2871,-1.2871,-1.287,0,-1.2746,-1.2738,-1.2788,-1.2793,-1.2795,-1.283,-1.2835,-1.2862,-1.2858,-1.2895,-1.2903,-1.2897,-1.2927,-1.2918,-1.295,-1.2944,-1.3002,-1.2992,-1.2998,-1.2997,-1.3039,-1.3036,-1.3174,-1.3192,-1.3063,-1.3064,-1.3065,0,-1.2809,-1.2842,-1.2851,-1.2868,-1.2875,-1.2904,-1.292,-1.2905,-1.2923,-1.2938,-1.2964,-1.299,-1.3012,-1.306,-1.3059,-1.3083,-1.3074,-1.3121,-1.3078,-1.3082,-1.3077,-1.3076,-1.3079,-1.313,-1.3132,-1.3133,-1.3134,0,-1.2923,-1.2917,-1.2941,-1.2964,-1.2984,-1.3001,-1.3016,-1.3031,-1.3017,-1.3038,-1.3068,-1.3084,-1.3116,-1.3143,-1.3164,-1.3169,-1.315,-1.3147,-1.3158,-1.3165,-1.3168,-1.3169,-1.3024,-1.3145,-1.3144,-1.3143,-1.3142,-1.3142,-1.3007,-1.3035,-1.3046,-1.3073,-1.3082,-1.3096,-1.3122,-1.3121,-1.3146,-1.3171,-1.316,-1.3194,-1.3204,-1.3231,-1.3238,-1.3265,-1.3247,-1.3263,-1.3267,-1.3272,-1.3278,-1.3162,-1.3268,-1.3268,-1.3268,-1.3267,-1.3267,0,-1.3122,-1.3126,-1.3151,-1.3173,-1.3194,-1.3172,-1.3187,-1.3206,-1.3237,-1.3248,-1.3269,-1.3302,-1.3328,-1.3328,-1.3352,-1.3373,-1.3365,-1.338,-1.338,-1.3381,-1.3292,-1.3281,-1.3387,-1.3387,-1.3387,-1.3387,-1.3387,-1.3387,-1.3184,-1.323,-1.3225,-1.3276,-1.3279,-1.3313,-1.3324,-1.3336,-1.3345,-1.3384,-1.3405,-1.3404,-1.3411,-1.3435,-1.3457,-1.3457,-1.3467,-1.3487,-1.3483,-1.34,-1.3388,-1.3377,-1.3366,-1.3489,-1.3489,-1.3571,-1.3571,-1.3572]},{"header":{"parameterUnit":"m.s-1","parameterCategory":1,"la1":30.2991,"la2":30.254,"lo1":-89.0895,"lo2":-89.0444,"dy":0.0017,"dx":0.0017,"nx":28,"ny":28,"refTime":"2023-10-05T21:00:00:Z","depth":0,"parameterNumber":3,"parameterNumberName":"V-component_of_WINDS"},"data":[0,0,0,0,0,0,0,0,0,0,0,0,0,0,0,0,0,0,0,0,0,0,0,0,0,0,0,0,0,0,0,0,0,0,0,0,0,0,0,0,0,0,0,0,0,0,0,0,0,0,0,0,0,0,0,0,0,0,-7.2433,-7.2434,0,-7.2553,-7.2554,-7.2555,-7.2475,-7.2471,-7.2467,-7.2464,-7.2581,-7.2587,-7.2594,0,0,0,0,0,0,0,0,0,0,0,0,0,-7.2127,-7.2134,-7.2433,-7.2434,-7.2436,-7.2553,-7.2554,-7.2556,-7.2475,-7.2471,-7.2466,-7.2462,-7.2579,-7.2586,-7.2594,0,0,0,0,0,0,0,0,0,0,0,0,0,-7.2255,-7.2135,-7.2432,-7.241,-7.2409,-7.2552,-7.2554,-7.2556,-7.2476,-7.2471,-7.2465,-7.246,-7.2576,-7.2586,-7.2595,-7.2766,0,0,-7.2625,-7.263,0,0,0,0,0,0,0,0,-7.2248,-7.2266,-7.2412,-7.2412,-7.2411,-7.2493,-7.2489,-7.2626,-7.2478,-7.2451,-7.2464,-7.2457,-7.2556,-7.2567,-7.2601,-7.2771,-7.2776,-7.2626,-7.2632,-7.2636,-7.2639,0,0,0,0,0,0,0,-7.2239,-7.2261,-7.248,-7.2414,-7.2413,-7.2391,-7.2404,-7.2515,-7.2532,-7.2452,-7.2447,-7.2462,-7.2554,-7.2592,-7.2603,-7.2778,-7.2626,-7.2635,-7.2641,-7.2644,-7.3093,-7.3099,0,0,0,0,0,0,-7.2233,-7.2254,-7.2476,-7.2483,-7.2314,-7.2401,-7.2415,-7.2472,-7.2531,-7.2535,-7.2467,-7.2458,-7.2578,-7.2592,-7.2607,-7.2811,-7.2636,-7.2645,-7.2651,-7.3087,-7.3094,-7.3101,0,0,0,0,0,0,-7.2227,-7.2254,-7.2471,-7.2367,-7.2393,-7.2413,-7.2478,-7.2477,-7.2515,-7.2542,-7.2544,-7.2503,-7.2574,-7.2593,-7.2727,-7.2814,-7.265,-7.2659,-7.308,-7.3089,-7.3098,-7.3219,0,0,0,0,0,0,-7.2218,-7.2252,-7.2319,-7.2369,-7.2399,-7.2592,-7.2483,-7.2484,-7.2533,-7.2523,-7.2576,-7.258,-7.2571,-7.2713,-7.2737,-7.2824,-7.2666,-7.3072,-7.3084,-7.3095,-7.3208,-7.3232,-7.3252,0,0,0,0,0,-7.2208,-7.2347,-7.2322,-7.235,-7.2483,-7.2597,-7.2614,-7.2603,-7.254,-7.2606,-7.2623,-7.2578,-7.28,-7.2728,-7.2754,-7.2845,-7.3067,-7.3081,-7.3094,-7.3198,-7.3227,-7.3251,0,0,0,0,0,0,-7.2303,-7.2353,-7.2326,-7.2486,-7.2538,-7.2583,-7.2666,-7.2634,-7.2703,-7.2691,-7.2672,-7.2685,-7.2826,-7.2848,-7.2766,-7.3013,-7.2923,-7.2943,-7.2993,-7.3021,-7.3043,-7.3034,-7.2675,0,0,0,0,0,-7.2343,-7.2434,-7.2471,-7.2609,-7.2636,-7.2647,-7.2696,-7.2684,-7.2736,-7.2757,-7.2784,-7.2834,-7.2915,-7.2969,-7.3045,-7.321,-7.322,-7.3286,-7.3308,-7.3326,-7.3343,-7.3431,-7.3461,-7.3146,-7.3145,-7.3145,0,0,-7.2426,-7.2465,-7.2522,-7.2629,-7.2668,-7.276,-7.2666,-7.2767,-7.2835,-7.2771,-7.29,-7.2922,-7.2977,-7.3127,-7.3194,-7.315,-7.3432,-7.3343,-7.3357,-7.3365,-7.3449,-7.3478,-7.3505,-7.3155,-7.3153,-7.3152,0,0,-7.2625,-7.2663,-7.2782,-7.2823,-7.2884,-7.289,-7.2919,-7.2969,-7.2981,-7.3111,-7.3065,-7.3143,-7.3284,-7.3325,-7.3364,-7.3579,-7.3539,-7.3603,-7.3719,-7.3805,-7.383,-7.3852,-7.3929,-7.3956,-7.362,-7.3621,-7.3621,0,-7.272,-7.286,-7.2847,-7.2953,-7.3,-7.2949,-7.3068,-7.3107,-7.3189,-7.3222,-7.3172,-7.3347,-7.338,-7.354,-7.3592,-7.3625,-7.3656,-7.3598,-7.3828,-7.385,-7.387,-7.3943,-7.3971,-7.3628,-7.3627,-7.3626,-7.3626,0,-7.2973,-7.307,-7.3159,-7.3241,-7.3298,-7.341,-7.3413,-7.3472,-7.3454,-7.3465,-7.3597,-7.3635,-7.3718,-7.3755,-7.3737,-7.3911,-7.3882,-7.3831,-7.374,-7.3908,-7.3976,-7.4004,-7.3639,-7.3636,-7.3634,-7.3632,0,0,-7.3236,-7.3311,-7.3344,-7.338,-7.3443,-7.3517,-7.3625,-7.3709,-7.376,-7.3817,-7.3907,-7.4027,-7.3979,-7.4024,-7.401,-7.4086,-7.4254,-7.4025,-7.4026,-7.4067,-7.4447,-7.4487,-7.4519,-7.4227,-7.4233,-7.4237,-7.4443,0,-7.3439,-7.3631,-7.3623,-7.3802,-7.3891,-7.3843,-7.3937,-7.3984,-7.3997,-7.4073,-7.4085,-7.4171,-7.4102,-7.4129,-7.4202,-7.4218,-7.433,-7.4203,-7.431,-7.4314,-7.4299,-7.4555,-7.4597,-7.4789,-7.4469,-7.4474,-7.4477,0,-7.3701,-7.377,-7.3959,-7.4009,-7.4046,-7.4131,-7.4206,-7.428,-7.4332,-7.4336,-7.4386,-7.436,-7.4468,-7.4375,-7.4522,-7.4436,-7.4479,-7.4493,-7.45,-7.451,-7.4406,-7.4572,-7.4851,-7.488,-7.4519,-7.4515,-7.4512,0,-7.3875,-7.4015,-7.4146,-7.4178,-7.4239,-7.43,-7.4328,-7.4375,-7.4426,-7.4491,-7.4523,-7.4599,-7.464,-7.4699,-7.4693,-7.4626,-7.4843,-7.4749,-7.4848,-7.4849,-7.4897,-7.4894,-7.5187,-7.4924,-7.4923,-7.4923,-7.4922,0,-7.4103,-7.422,-7.4225,-7.4305,-7.4435,-7.4423,-7.455,-7.4571,-7.4613,-7.4696,-7.4657,-7.4735,-7.4723,-7.48,-7.4796,-7.4919,-7.4937,-7.4942,-7.494,-7.4947,-7.4946,-7.4975,-7.4962,-7.493,-7.4929,-7.4927,-7.4926,0,-7.4319,-7.4327,-7.4467,-7.4514,-7.4528,-7.4621,-7.466,-7.4735,-7.4745,-7.4849,-7.4873,-7.4887,-7.4976,-7.4976,-7.5077,-7.5074,-7.5225,-7.5206,-7.5208,-7.5205,-7.5304,-7.5295,-7.5626,-7.5669,-7.5377,-7.538,-7.5382,0,-7.4465,-7.4554,-7.4611,-7.4665,-7.4697,-7.4783,-7.4835,-7.4826,-7.4881,-7.4947,-7.5014,-7.51,-7.5168,-7.5312,-7.533,-7.5406,-7.539,-7.5501,-7.5401,-7.5405,-7.5392,-7.5388,-7.5396,-7.5521,-7.5524,-7.5526,-7.5529,0,-7.4722,-7.4722,-7.4799,-7.4878,-7.4942,-7.5003,-7.5059,-7.5105,-7.5101,-7.5165,-7.5257,-7.531,-7.5413,-7.5498,-7.5573,-7.5598,-7.5563,-7.556,-7.5587,-7.5595,-7.5592,-7.5596,-7.5262,-7.5552,-7.555,-7.5548,-7.5547,-7.5546,-7.4908,-7.4985,-7.5038,-7.5125,-7.5167,-7.522,-7.5294,-7.5313,-7.539,-7.5476,-7.5464,-7.5566,-7.5614,-7.5711,-7.5743,-7.5821,-7.5782,-7.5821,-7.5831,-7.5842,-7.5853,-7.558,-7.5834,-7.5834,-7.5833,-7.5832,-7.5832,0,-7.5163,-7.5195,-7.5276,-7.5357,-7.5425,-7.5388,-7.5448,-7.5507,-7.5598,-7.5647,-7.5716,-7.5821,-7.5903,-7.5927,-7.6006,-7.6064,-7.605,-7.6085,-7.6081,-7.6088,-7.5883,-7.5852,-7.6095,-7.6095,-7.6095,-7.6095,-7.6095,-7.6095,-7.5305,-7.5434,-7.544,-7.5588,-7.5618,-7.572,-7.5757,-7.5806,-7.5845,-7.5965,-7.6034,-7.605,-7.6089,-7.617,-7.6244,-7.6248,-7.6279,-7.6322,-7.632,-7.6128,-7.6102,-7.6077,-7.6048,-7.6328,-7.6329,-7.6518,-7.652,-7.6521]}]]